Wind_Speed
26 28 27 26 26 26 24 25 28 29 30 31 32 32 33 33 33 37 40 42 45 48 51 55 57 58 59 61 57 52 50 57 62 59 62 59 57 44 46 40 38 38 43
33 34 33 33 32 30 28 29 31 31 34 35 36 37 37 38 38 40 43 45 48 52 55 59 61 62 65 62 53 53 53 58 60 55 63 63 58 52 51 49 46 44 49
43 42 40 38 37 36 34 33 33 33 36 37 37 39 41 42 42 44 47 49 51 53 57 61 63 66 68 61 53 52 55 63 62 62 63 64 62 57 50 45 44 44 54
46 51 46 41 39 40 38 38 38 37 39 40 40 42 44 46 47 48 50 52 55 57 60 62 64 68 59 60 54 52 57 60 63 63 63 64 63 55 49 46 48 53 54
44 44 46 45 45 44 45 44 44 43 42 45 45 47 49 52 51 52 53 57 59 62 64 65 66 63 53 57 56 54 59 64 61 62 60 70 64 58 50 54 60 63 71
51 52 51 52 51 51 52 49 47 49 48 48 52 54 55 58 58 56 56 60 65 67 68 68 68 56 62 58 54 54 60 64 62 61 67 75 68 66 61 69 69 75 81
60 59 58 57 56 58 56 55 55 55 55 57 58 59 60 61 63 61 59 61 69 72 72 71 67 64 69 57 54 57 62 64 68 68 72 78 75 72 74 78 78 81 84
68 65 65 65 64 63 61 62 64 62 61 61 64 65 66 67 67 67 65 66 71 75 77 76 62 70 65 56 57 60 64 67 69 70 76 76 75 82 81 82 82 87 93
75 74 73 73 70 67 67 69 68 68 66 67 67 69 72 73 74 75 74 71 71 75 76 66 64 66 58 58 63 65 69 75 76 80 80 78 80 85 87 90 89 92 97
70 77 80 77 76 74 74 75 74 71 72 74 75 75 78 79 79 80 78 76 75 72 59 63 69 55 60 60 63 64 72 81 81 80 81 87 86 86 96 98 104 102 108
66 66 68 73 76 79 83 81 80 78 79 77 77 80 83 86 83 79 74 73 64 49 55 63 59 58 61 62 64 64 73 77 84 88 91 95 95 91 101 106 108 117 118
70 69 68 69 67 68 70 69 67 72 73 67 60 54 51 49 46 53 56 52 45 45 51 56 61 57 58 61 62 70 77 84 97 100 97 105 100 106 112 112 119 130 124
70 70 67 68 66 64 61 60 53 44 39 41 20 17 21 24 31 38 43 54 66 58 55 72 65 67 63 65 71 78 86 94 100 101 103 104 117 116 125 114 125 131 114
66 66 58 59 63 58 53 49 36 22 16 18 5 11 14 24 29 38 29 33 96 61 64 71 79 72 71 76 85 84 90 95 97 104 111 117 121 117 123 121 125 134 114
58 60 54 53 57 58 54 41 30 23 9 14 15 13 9 16 21 18 18 31 49 51 59 76 76 79 87 92 93 91 96 98 100 110 120 119 124 121 122 118 131 129 113
63 56 54 54 52 51 51 47 40 29 22 17 10 21 35 38 21 33 43 54 59 54 62 63 71 73 82 81 85 91 98 105 112 118 123 118 120 118 111 122 124 114 111
68 56 55 51 57 53 49 58 57 42 34 27 27 17 30 26 61 66 62 71 73 68 77 87 84 91 91 83 91 98 105 106 112 113 124 114 111 112 119 113 113 113 107
66 60 51 55 58 53 57 65 63 62 59 50 46 32 42 44 32 60 78 84 85 88 88 91 86 95 97 98 102 103 105 107 114 114 120 114 107 110 107 110 109 108 104
56 61 57 56 62 57 60 66 62 69 53 61 55 49 32 45 45 55 65 76 80 84 95 90 93 99 101 99 97 100 107 110 109 111 110 109 103 101 101 103 107 101 99
60 65 64 59 60 62 65 59 70 58 48 51 53 48 57 57 55 62 71 74 74 79 82 91 91 98 95 98 100 104 106 109 110 103 102 106 101 99 98 103 101 99 94
62 62 63 64 64 60 61 56 56 53 53 57 58 60 64 66 67 72 79 81 83 85 84 89 95 100 104 106 107 111 114 113 108 100 100 100 99 98 98 100 96 94 89
64 60 68 69 69 57 61 61 62 64 65 61 61 68 69 72 75 70 71 77 82 84 90 90 95 98 99 103 109 107 104 99 99 101 92 95 98 97 99 93 94 91 83
66 67 69 65 66 68 70 71 73 72 69 67 69 64 68 74 77 79 81 82 85 84 87 89 91 93 97 92 94 97 95 94 96 91 88 92 96 96 95 93 88 86 77
65 63 60 60 66 67 67 70 72 75 74 71 69 74 75 74 80 88 90 90 94 90 87 82 79 78 80 81 82 82 84 83 83 85 89 95 96 90 90 88 84 81 72
64 60 58 55 58 62 62 66 73 74 75 77 76 78 76 74 75 82 88 91 86 80 80 83 77 76 76 77 82 78 80 80 83 87 95 97 95 91 87 82 79 77 70
61 62 62 60 59 57 58 64 67 73 80 87 87 88 90 91 92 85 78 77 82 80 78 77 76 80 76 75 78 80 85 86 90 95 97 97 91 84 82 80 78 76 67
Wind_Direction
254 260 264 270 271 271 276 281 286 291 297 303 307 310 312 315 322 324 326 328 329 330 332 332 332 333 335 338 335 331 334 342 343 342 348 348 349 339 339 332 319 326 328
255 260 265 272 277 278 277 279 284 290 293 298 305 308 310 313 318 317 320 322 325 326 328 329 329 331 332 332 330 327 332 340 342 342 344 345 345 338 337 334 326 313 320
257 260 262 266 269 275 275 276 279 285 289 293 299 303 306 309 312 314 316 320 322 322 324 324 327 328 328 329 326 322 331 339 343 344 344 343 340 338 331 324 323 313 314
262 261 261 263 269 271 274 277 279 283 286 290 294 296 300 304 306 310 315 317 317 318 318 320 323 323 325 325 322 323 330 339 339 339 342 339 338 332 324 319 313 320 323
259 260 261 267 270 272 274 276 280 282 286 289 292 294 298 300 304 308 310 311 312 313 315 318 322 323 321 318 317 318 329 336 336 336 335 338 335 331 322 321 323 324 328
257 259 262 266 270 275 270 272 275 279 282 288 290 292 295 298 301 304 308 308 309 310 313 316 320 318 314 312 311 313 320 327 330 331 330 340 333 336 332 328 332 331 331
258 261 262 265 268 272 269 267 274 280 284 286 289 291 293 296 298 301 304 308 307 309 311 314 317 311 313 310 306 305 315 325 328 329 334 335 336 335 333 332 332 331 331
257 258 260 261 263 265 268 270 273 278 281 284 286 290 292 293 296 299 302 304 305 308 311 312 312 307 308 308 307 309 310 316 324 327 334 333 334 334 335 332 330 332 331
261 261 262 263 264 267 271 272 274 279 283 285 287 288 290 292 296 298 302 304 305 306 306 308 304 304 301 305 311 308 309 311 319 325 330 333 332 332 333 331 331 331 329
267 266 265 266 269 270 271 273 276 280 282 286 289 290 291 294 294 295 298 300 301 300 300 299 303 298 298 303 309 307 304 310 316 321 326 333 332 334 333 331 331 331 328
269 270 270 270 269 269 270 273 277 280 282 284 288 289 290 290 291 294 295 293 296 299 295 299 295 299 302 303 300 302 307 313 317 320 322 328 330 333 331 331 330 330 328
271 273 275 276 275 276 277 277 276 278 281 286 289 292 296 295 295 287 287 287 291 297 305 302 298 300 303 299 299 301 307 311 311 315 321 321 330 328 329 328 328 328 327
268 271 271 274 277 276 278 278 279 282 281 288 278 351 339 327 306 295 294 289 290 297 293 296 301 294 297 297 291 293 298 303 307 313 317 321 322 323 323 327 328 328 327
269 269 271 274 275 277 275 272 274 274 301 266 52 13 339 341 347 334 315 261 275 286 290 294 289 295 294 289 293 294 295 299 304 311 312 316 318 323 321 324 325 326 326
274 273 271 269 271 271 268 263 243 246 269 242 289 275 21 359 340 309 296 215 260 266 277 282 283 286 285 294 290 293 296 299 302 305 312 313 318 322 321 322 323 324 325
277 269 273 271 264 259 256 243 227 234 235 233 281 269 273 273 291 262 278 278 269 263 272 272 273 284 289 289 287 292 296 299 303 305 310 311 315 319 320 321 322 323 326
277 267 276 270 262 261 255 240 227 240 241 253 241 270 272 243 241 251 269 270 261 268 273 274 277 279 282 287 288 291 296 297 305 305 312 313 317 317 318 321 322 324 326
271 263 269 275 262 259 247 237 233 243 251 252 264 257 255 252 220 232 246 254 258 263 267 270 274 279 285 286 289 292 294 300 303 306 309 316 316 315 318 320 321 324 325
254 257 265 267 262 257 244 243 249 246 252 264 254 242 246 239 247 241 253 253 254 262 272 278 277 277 285 290 292 296 296 301 304 308 311 312 313 316 318 321 322 324 326
255 256 262 256 257 257 246 250 249 252 254 245 246 247 237 233 238 256 262 265 270 273 273 272 274 276 283 289 293 297 300 302 305 308 307 309 310 314 317 321 322 325 326
251 253 253 253 261 256 250 245 244 253 244 242 247 250 239 242 253 260 256 258 262 269 273 272 273 276 281 286 289 294 297 299 301 303 307 308 309 312 317 320 325 325 326
246 251 254 257 261 254 254 246 245 251 251 251 258 253 252 253 253 255 258 260 263 268 272 276 279 282 287 287 288 291 295 298 299 302 304 307 308 314 315 321 324 324 323
254 255 261 261 261 262 262 253 251 252 257 263 252 257 259 259 259 258 259 264 267 274 280 286 287 287 287 290 292 294 296 298 300 301 305 308 312 312 316 321 323 323 321
254 255 253 255 258 260 260 255 251 251 255 260 259 258 261 265 265 264 267 273 275 279 284 289 291 294 294 294 297 297 296 299 300 302 306 308 310 314 317 320 321 323 321
246 246 251 261 266 265 263 260 253 250 254 257 259 259 261 263 265 268 271 274 278 282 287 291 291 291 291 291 292 295 298 300 302 304 303 306 312 314 316 318 322 324 321
255 254 257 257 259 264 265 262 260 257 258 259 264 265 262 262 264 270 275 278 279 280 282 285 287 287 291 292 292 295 297 298 299 298 303 307 310 312 314 317 321 323 321
Height
10954 10956 10957 10957 10959 10959 10959 10958 10958 10957 10956 10955 10955 10953 10952 10949 10946 10942 10939 10936 10932 10929 10924 10918 10914 10908 10903 10898 10893 10890 10887 10880 10873 10866 10860 10856 10851 10845 10842 10839 10836 10833 10831
10947 10950 10950 10950 10951 10953 10953 10953 10951 10951 10949 10948 10949 10948 10946 10943 10940 10936 10932 10929 10925 10920 10915 10910 10904 10900 10893 10888 10884 10878 10874 10872 10867 10860 10851 10844 10837 10832 10826 10822 10819 10817 10814
10938 10941 10942 10942 10943 10944 10944 10944 10942 10943 10942 10941 10941 10940 10939 10936 10933 10929 10925 10921 10918 10914 10908 10902 10896 10890 10883 10877 10874 10870 10866 10860 10852 10847 10841 10833 10828 10824 10818 10814 10811 10808 10804
10931 10930 10933 10934 10935 10935 10935 10935 10934 10934 10933 10933 10933 10931 10929 10927 10925 10922 10918 10912 10907 10903 10901 10896 10889 10880 10873 10868 10864 10860 10855 10849 10842 10835 10829 10825 10823 10818 10812 10808 10803 10798 10791
10922 10921 10922 10924 10925 10926 10926 10926 10926 10925 10924 10924 10924 10922 10920 10917 10916 10912 10908 10902 10897 10893 10891 10885 10880 10874 10866 10860 10856 10852 10847 10843 10837 10829 10824 10819 10813 10810 10804 10796 10788 10779 10771
10910 10909 10913 10913 10914 10915 10916 10917 10917 10915 10915 10916 10913 10912 10910 10907 10904 10902 10900 10895 10887 10881 10877 10873 10869 10864 10857 10852 10847 10842 10840 10836 10830 10822 10817 10807 10798 10792 10786 10781 10771 10762 10750
10898 10898 10901 10901 10902 10902 10905 10907 10905 10906 10908 10905 10903 10901 10899 10897 10893 10892 10891 10887 10875 10869 10863 10861 10859 10851 10847 10843 10838 10832 10827 10822 10816 10809 10802 10796 10785 10777 10769 10761 10753 10744 10733
10883 10888 10889 10888 10889 10890 10892 10893 10892 10895 10896 10895 10892 10890 10887 10884 10881 10878 10878 10876 10866 10857 10852 10846 10845 10839 10834 10832 10826 10821 10817 10812 10806 10799 10789 10780 10771 10763 10753 10744 10734 10722 10710
10871 10872 10873 10872 10875 10882 10883 10880 10881 10881 10883 10880 10879 10876 10873 10868 10865 10860 10861 10861 10857 10848 10842 10834 10827 10824 10820 10819 10815 10810 10807 10801 10792 10783 10775 10764 10756 10746 10735 10728 10715 10705 10692
10848 10851 10855 10862 10864 10869 10867 10865 10866 10870 10866 10862 10860 10860 10856 10853 10851 10847 10847 10845 10840 10834 10825 10818 10811 10807 10805 10802 10801 10797 10791 10788 10777 10771 10764 10753 10742 10729 10720 10709 10697 10685 10673
10833 10837 10842 10846 10849 10849 10848 10851 10851 10852 10850 10850 10849 10844 10840 10838 10836 10833 10830 10825 10822 10820 10812 10802 10796 10796 10794 10789 10786 10782 10777 10771 10764 10756 10749 10739 10729 10716 10706 10695 10682 10668 10653
10824 10825 10825 10826 10827 10828 10828 10834 10838 10835 10834 10833 10836 10834 10828 10820 10818 10809 10806 10806 10805 10803 10799 10790 10782 10783 10783 10774 10769 10765 10760 10755 10751 10742 10735 10726 10716 10706 10691 10678 10665 10650 10635
10811 10810 10811 10812 10811 10811 10814 10814 10819 10821 10817 10818 10820 10820 10816 10809 10804 10799 10793 10790 10786 10790 10792 10781 10777 10770 10772 10773 10764 10758 10752 10746 10739 10730 10721 10710 10702 10688 10679 10661 10647 10631 10618
10795 10797 10797 10795 10792 10796 10798 10800 10803 10804 10804 10805 10808 10810 10805 10802 10795 10791 10776 10791 10724 10790 10785 10773 10765 10767 10762 10766 10758 10751 10743 10734 10727 10716 10709 10701 10687 10671 10659 10645 10630 10619 10604
10778 10779 10782 10782 10782 10784 10785 10788 10790 10794 10793 10793 10795 10801 10800 10798 10794 10801 10800 10799 10789 10780 10780 10765 10760 10756 10751 10752 10747 10739 10732 10721 10717 10706 10701 10685 10672 10658 10643 10630 10615 10604 10592
10762 10762 10764 10766 10768 10768 10769 10771 10775 10777 10776 10780 10778 10778 10785 10791 10809 10803 10804 10801 10789 10776 10766 10758 10752 10744 10742 10738 10733 10727 10720 10710 10704 10694 10685 10671 10661 10645 10630 10617 10600 10588 10579
10742 10744 10748 10752 10750 10752 10755 10754 10760 10762 10762 10762 10756 10759 10771 10779 10775 10802 10785 10781 10778 10771 10751 10744 10744 10739 10733 10723 10716 10712 10707 10700 10692 10678 10675 10659 10647 10631 10617 10605 10590 10578 10567
10723 10724 10733 10735 10732 10734 10736 10735 10740 10745 10746 10743 10740 10741 10741 10750 10746 10767 10766 10759 10756 10745 10737 10734 10733 10728 10723 10713 10706 10701 10693 10687 10681 10668 10659 10645 10634 10620 10607 10593 10581 10568 10555
10707 10707 10715 10717 10714 10716 10720 10720 10723 10724 10725 10728 10731 10727 10719 10732 10732 10736 10737 10737 10735 10735 10735 10727 10723 10717 10711 10704 10697 10690 10681 10675 10664 10655 10645 10635 10625 10609 10597 10582 10572 10557 10542
10690 10690 10693 10698 10699 10699 10704 10706 10705 10708 10709 10714 10717 10716 10716 10715 10717 10718 10718 10717 10717 10718 10714 10712 10706 10703 10698 10687 10678 10671 10664 10658 10650 10638 10630 10624 10612 10598 10586 10576 10562 10547 10533
10675 10674 10675 10678 10679 10682 10685 10691 10693 10695 10696 10697 10700 10700 10703 10705 10705 10708 10706 10702 10702 10702 10699 10696 10691 10685 10677 10668 10658 10654 10649 10642 10633 10626 10618 10608 10600 10588 10577 10567 10551 10537 10525
10657 10659 10659 10662 10662 10665 10670 10672 10674 10678 10679 10680 10682 10683 10685 10685 10688 10687 10685 10686 10687 10684 10681 10676 10671 10666 10658 10652 10645 10637 10630 10623 10617 10612 10602 10596 10587 10577 10567 10557 10542 10529 10517
10641 10643 10647 10650 10650 10649 10651 10653 10656 10659 10662 10663 10665 10664 10666 10667 10667 10666 10667 10667 10666 10663 10660 10657 10652 10645 10639 10629 10620 10616 10612 10606 10603 10597 10587 10581 10575 10566 10554 10545 10532 10521 10509
10627 10629 10633 10634 10634 10634 10634 10636 10638 10639 10641 10644 10646 10646 10645 10644 10645 10646 10644 10643 10643 10639 10635 10632 10628 10621 10615 10610 10601 10598 10596 10592 10588 10582 10574 10571 10564 10552 10542 10533 10522 10510 10498
10612 10615 10617 10616 10616 10615 10616 10618 10622 10623 10625 10626 10627 10628 10629 10629 10629 10627 10626 10625 10621 10617 10614 10610 10607 10601 10595 10591 10587 10582 10581 10575 10571 10567 10564 10557 10548 10539 10530 10521 10510 10499 10487
10599 10599 10601 10602 10601 10599 10599 10599 10602 10605 10607 10608 10605 10602 10602 10606 10609 10606 10603 10601 10601 10597 10592 10588 10585 10583 10581 10578 10575 10570 10567 10561 10558 10553 10548 10540 10531 10524 10518 10509 10498 10487 10476